TimePDT,TemperatureF,Dew PointF,Humidity,Sea Level PressureIn,VisibilityMPH,Wind Direction,Wind SpeedMPH,Gust SpeedMPH,PrecipitationIn,Events,Conditions,WindDirDegrees,DateUTC
12:15 AM,59.0,57.2,94,30.05,10.0,NNW,3.5,-,N/A,,Overcast,330,2013-08-08 07:15:00
12:35 AM,59.0,57.2,94,30.05,10.0,Calm,Calm,-,N/A,,Overcast,0,2013-08-08 07:35:00
12:55 AM,59.0,57.2,94,30.04,10.0,Calm,Calm,-,N/A,,Overcast,0,2013-08-08 07:55:00
1:15 AM,59.0,57.2,94,30.04,10.0,Calm,Calm,-,N/A,,Overcast,0,2013-08-08 08:15:00
1:35 AM,59.0,55.4,88,30.04,10.0,Calm,Calm,-,N/A,,Mostly Cloudy,0,2013-08-08 08:35:00
1:55 AM,57.2,55.4,94,30.03,10.0,Calm,Calm,-,N/A,,Mostly Cloudy,0,2013-08-08 08:55:00
2:15 AM,57.2,57.2,100,30.03,10.0,NNW,4.6,-,N/A,,Overcast,330,2013-08-08 09:15:00
2:35 AM,57.2,57.2,100,30.03,10.0,NNW,3.5,-,N/A,,Overcast,340,2013-08-08 09:35:00
2:55 AM,57.2,57.2,100,30.02,10.0,NNW,3.5,-,N/A,,Overcast,340,2013-08-08 09:55:00
3:15 AM,59.0,57.2,94,30.02,10.0,Calm,Calm,-,N/A,,Overcast,0,2013-08-08 10:15:00
3:35 AM,59.0,57.2,94,30.02,10.0,Calm,Calm,-,N/A,,Overcast,0,2013-08-08 10:35:00
3:55 AM,57.2,57.2,100,30.01,10.0,Calm,Calm,-,N/A,,Overcast,0,2013-08-08 10:55:00
4:15 AM,57.2,57.2,100,30.01,10.0,Calm,Calm,-,N/A,,Overcast,0,2013-08-08 11:15:00
4:35 AM,57.2,57.2,100,30.01,10.0,Calm,Calm,-,N/A,,Overcast,0,2013-08-08 11:35:00
4:55 AM,57.2,57.2,100,30.01,10.0,NNW,4.6,-,N/A,,Overcast,330,2013-08-08 11:55:00
5:15 AM,57.2,57.2,100,30.01,10.0,NNW,4.6,-,N/A,,Overcast,340,2013-08-08 12:15:00
5:35 AM,57.2,57.2,100,30.01,10.0,North,5.8,-,N/A,,Overcast,350,2013-08-08 12:35:00
5:55 AM,55.4,55.4,100,30.01,10.0,North,4.6,-,N/A,,Mostly Cloudy,350,2013-08-08 12:55:00
6:15 AM,55.4,55.4,100,30.02,10.0,Calm,Calm,-,N/A,,Mostly Cloudy,0,2013-08-08 13:15:00
6:35 AM,55.4,55.4,100,30.02,10.0,East,3.5,-,N/A,,Scattered Clouds,90,2013-08-08 13:35:00
6:55 AM,53.6,53.6,100,30.02,10.0,Calm,Calm,-,N/A,,Partly Cloudy,0,2013-08-08 13:55:00
7:15 AM,53.6,53.6,100,30.03,10.0,Calm,Calm,-,N/A,,Mostly Cloudy,0,2013-08-08 14:15:00
7:35 AM,57.2,57.2,100,30.03,10.0,Calm,Calm,-,N/A,,Overcast,0,2013-08-08 14:35:00
7:55 AM,57.2,55.4,94,30.03,10.0,Calm,Calm,-,N/A,,Overcast,0,2013-08-08 14:55:00
8:15 AM,59.0,55.4,88,30.03,10.0,Calm,Calm,-,N/A,,Overcast,0,2013-08-08 15:15:00
8:35 AM,59.0,55.4,88,30.03,10.0,NNW,6.9,-,N/A,,Overcast,340,2013-08-08 15:35:00
8:55 AM,60.8,55.4,82,30.03,10.0,NNW,8.1,-,N/A,,Overcast,330,2013-08-08 15:55:00
9:15 AM,60.8,55.4,82,30.03,10.0,NW,5.8,-,N/A,,Overcast,310,2013-08-08 16:15:00
9:35 AM,62.6,55.4,77,30.03,10.0,NNW,6.9,-,N/A,,Overcast,330,2013-08-08 16:35:00
9:55 AM,62.6,55.4,77,30.02,10.0,North,8.1,-,N/A,,Overcast,10,2013-08-08 16:55:00
10:15 AM,62.6,55.4,77,30.03,10.0,North,5.8,-,N/A,,Overcast,360,2013-08-08 17:15:00
10:35 AM,62.6,55.4,77,30.03,10.0,East,3.5,-,N/A,,Overcast,100,2013-08-08 17:35:00
10:55 AM,64.4,55.4,73,30.03,10.0,SSW,4.6,-,N/A,,Overcast,200,2013-08-08 17:55:00
11:15 AM,66.2,55.4,68,30.02,10.0,South,6.9,-,N/A,,Mostly Cloudy,180,2013-08-08 18:15:00
11:35 AM,68.0,55.4,64,30.02,10.0,South,6.9,-,N/A,,Scattered Clouds,180,2013-08-08 18:35:00
11:55 AM,68.0,55.4,64,30.01,-9999.0,SSE,6.9,-,N/A,,Clear,150,2013-08-08 18:55:00
12:15 PM,69.8,55.4,60,30.01,-9999.0,South,6.9,-,N/A,,Clear,170,2013-08-08 19:15:00
12:35 PM,71.6,55.4,57,30.00,-9999.0,South,8.1,-,N/A,,Clear,180,2013-08-08 19:35:00
12:55 PM,71.6,55.4,57,29.99,-9999.0,South,6.9,-,N/A,,Clear,180,2013-08-08 19:55:00
1:15 PM,73.4,55.4,53,29.99,-9999.0,South,3.5,-,N/A,,Clear,170,2013-08-08 20:15:00
1:35 PM,73.4,55.4,53,29.99,-9999.0,SW,5.8,-,N/A,,Clear,230,2013-08-08 20:35:00
1:55 PM,73.4,55.4,53,29.98,-9999.0,WSW,12.7,-,N/A,,Clear,250,2013-08-08 20:55:00
2:15 PM,73.4,55.4,53,29.98,-9999.0,WSW,9.2,-,N/A,,Clear,250,2013-08-08 21:15:00
2:35 PM,73.4,55.4,53,29.98,-9999.0,SW,11.5,-,N/A,,Clear,230,2013-08-08 21:35:00
2:55 PM,73.4,55.4,53,29.98,-9999.0,SW,12.7,-,N/A,,Clear,230,2013-08-08 21:55:00
3:15 PM,73.4,55.4,53,29.97,-9999.0,WSW,12.7,-,N/A,,Clear,240,2013-08-08 22:15:00
3:35 PM,71.6,53.6,53,29.97,-9999.0,WSW,12.7,18.4,N/A,,Clear,240,2013-08-08 22:35:00
3:55 PM,73.4,53.6,50,29.97,-9999.0,WSW,12.7,18.4,N/A,,Clear,240,2013-08-08 22:55:00
4:15 PM,73.4,53.6,50,29.96,-9999.0,SW,13.8,-,N/A,,Clear,230,2013-08-08 23:15:00
4:35 PM,71.6,53.6,53,29.96,-9999.0,WSW,12.7,-,N/A,,Clear,240,2013-08-08 23:35:00
4:55 PM,69.8,53.6,56,29.96,-9999.0,WSW,18.4,23.0,N/A,,Clear,250,2013-08-08 23:55:00
5:15 PM,68.0,53.6,60,29.96,10.0,WSW,17.3,24.2,N/A,,Clear,240,2013-08-09 00:15:00
5:35 PM,66.2,53.6,64,29.96,10.0,WSW,17.3,-,N/A,,Clear,240,2013-08-09 00:35:00
5:55 PM,66.2,53.6,64,29.96,10.0,WSW,12.7,23.0,N/A,,Clear,250,2013-08-09 00:55:00
6:15 PM,66.2,53.6,64,29.96,10.0,NNW,11.5,16.1,N/A,,Clear,340,2013-08-09 01:15:00
6:35 PM,64.4,53.6,68,29.96,10.0,North,9.2,-,N/A,,Clear,350,2013-08-09 01:35:00
6:55 PM,62.6,53.6,72,29.96,10.0,NNW,11.5,-,N/A,,Clear,330,2013-08-09 01:55:00
7:15 PM,60.8,53.6,77,29.96,10.0,NNW,10.4,-,N/A,,Clear,340,2013-08-09 02:15:00
7:35 PM,59.0,53.6,82,29.95,10.0,NNW,8.1,-,N/A,,Clear,330,2013-08-09 02:35:00
7:55 PM,57.2,53.6,88,29.96,10.0,NW,4.6,-,N/A,,Clear,310,2013-08-09 02:55:00
8:15 PM,57.2,53.6,88,29.96,10.0,East,5.8,-,N/A,,Unknown,80,2013-08-09 03:15:00
8:35 PM,55.4,53.6,94,29.96,10.0,ESE,5.8,-,N/A,,Unknown,110,2013-08-09 03:35:00
8:55 PM,55.4,53.6,94,29.96,10.0,East,6.9,-,N/A,,Unknown,80,2013-08-09 03:55:00
9:15 PM,55.4,53.6,94,29.97,10.0,ESE,3.5,-,N/A,,Unknown,110,2013-08-09 04:15:00
9:35 PM,55.4,53.6,94,29.97,10.0,ENE,6.9,-,N/A,,Unknown,70,2013-08-09 04:35:00
9:55 PM,55.4,53.6,94,29.98,10.0,East,4.6,-,N/A,,Unknown,90,2013-08-09 04:55:00
10:15 PM,55.4,53.6,94,29.98,10.0,East,5.8,-,N/A,,Unknown,80,2013-08-09 05:15:00
10:35 PM,55.4,53.6,94,29.98,10.0,Calm,Calm,-,N/A,,Unknown,0,2013-08-09 05:35:00
10:55 PM,53.6,53.6,100,29.98,10.0,East,4.6,-,N/A,,Unknown,90,2013-08-09 05:55:00
11:15 PM,55.4,55.4,100,29.98,10.0,ESE,4.6,-,N/A,,Unknown,120,2013-08-09 06:15:00
11:35 PM,55.4,55.4,100,29.98,10.0,South,3.5,-,N/A,,Overcast,180,2013-08-09 06:35:00
11:55 PM,55.4,53.6,94,29.97,10.0,WSW,6.9,-,N/A,,Overcast,250,2013-08-09 06:55:00